Location: City of Moscow
(46.7306°N, 116.9989°W)
Time: 12:43:00
(UTC+00:00)

Cosmos 1626 Rocket - Pass Details

Date: 17 March 2026
Orbit: 595 x 624 km, 82.5° (Epoch: 18 April)

Event Time Altitude Azimuth Distance (km) Brightness Sun altitude
Rises 13:19:42 0° 337° (NNW) 2,894 6.8 -7.1°
Reaches altitude 10° 13:22:23 10° 321° (NW) 1,977 5.8 -6.7°
Maximum altitude 13:25:34 20° 274° (W) 1,418 4.8 -6.1°
Drops below altitude 10° 13:28:43 10° 227° (SW) 1,952 5.7 -5.6°
Sets 13:31:22 0° 210° (SSW) 2,844 6.6 -5.2°
